Miscellaneous Local Product
Issued by NWS Hastings, NE

Home | Current Version | Previous Version | Text Only | Print | Product List | Glossary Off
Versions: 1 2 3 4 5 6 7 8 9 10 11 12 13 14 15 16 17 18 19 20 21 22 23 24 25 26 27 28 29 30 31 32 33 34 35 36 37 38 39 40 41 42 43 44 45 46 47 48 49 50

000
AXUS43 KGID 300902
MISGRI

GID CWA HOURLY WEATHER ROUNDUP
NATIONAL WEATHER SERVICE HASTINGS NE
300 AM CST FRI JAN 30 2015

NOTE: "FAIR" INDICATES FEW OR NO CLOUDS BELOW 12,000 FEET WITH NO
SIGNIFICANT WEATHER AND/OR OBSTRUCTIONS TO VISIBILITY.

...SOUTH CENTRAL NEBRASKA...

CITY           SKY/WX    TMP DP  RH WIND       PRES   REMARKS
GRAND ISLAND   PTCLDY    20  17  88 SE3       30.51F
HASTINGS       CLEAR     25  20  81 SE8       30.48F WCI  16
KEARNEY        CLEAR     18  12  79 E3        30.47F
ORD            PTCLDY    23  18  81 SE7       30.46F WCI  15
YORK           FOG       18  18 100 CALM      30.53S VSB 3/4
AURORA         PTCLDY    19  17  93 SE3       30.51F
LEXINGTON      PTCLDY    18  15  88 CALM      30.45F
HOLDREGE       PTCLDY    21  15  77 CALM      30.46S
HEBRON         CLEAR     16  12  87 CALM      30.54F

...NEBRASKA PANHANDLE...

CITY           SKY/WX    TMP DP  RH WIND       PRES   REMARKS
CHADRON        MOCLDY    33  18  53 SW9       30.29F WCI  25
ALLIANCE       MOCLDY    25  19  78 CALM      30.31F
SCOTTSBLUFF    MOCLDY    28  21  75 E8        30.29F WCI  20
SIDNEY         MOCLDY    28  19  69 S5        30.32F WCI  23

...WESTERN AND NORTH CENTRAL NEBRASKA...

CITY           SKY/WX    TMP DP  RH WIND       PRES   REMARKS
VALENTINE      CLEAR     20  16  84 NE3       30.38F
AINSWORTH      PTCLDY    24  20  85 S9        30.40S WCI  14
ONEILL         CLEAR     20  19  96 SE7       30.47F WCI  11
BROKEN BOW     PTCLDY    16  12  84 CALM      30.43F
IMPERIAL       MOCLDY    30  21  69 S8        30.40F WCI  22
NORTH PLATTE   MOCLDY    17  13  84 CALM      30.42F
MCCOOK         PTCLDY    20  15  81 CALM      30.44F

...EASTERN NEBRASKA...

CITY           SKY/WX    TMP DP  RH WIND       PRES   REMARKS
NORFOLK        PTCLDY    17  13  84 CALM      30.51S
SO SIOUX CITY  PTCLDY    17  14  88 W3        30.55R
COLUMBUS       PTCLDY    16   9  73 CALM      30.54S
ALBION         PTCLDY    16  13  88 CALM      30.50F
OMAHA EPPLEY   CLEAR     21  18  88 N3        30.55S
OFFUTT AFB     CLEAR     18  16  89 CALM      30.55S
MILLARD        CLEAR     23  19  87 CALM      30.55S
LINCOLN        PTCLDY    16  13  88 CALM      30.56S
NEBRASKA CITY  PTCLDY    23  18  82 N3        30.55S
BEATRICE       CLEAR     16  14  90 CALM      30.55S
FALLS CITY     PTCLDY    18  15  88 NW5       30.55S WCI  11

...NORTHERN KANSAS...

CITY           SKY/WX    TMP DP  RH WIND       PRES   REMARKS
GOODLAND       MOCLDY    28  21  75 S12       30.40F WCI  18
HILL CITY      PTCLDY    18  13  80 CALM      30.48F
NORTON         SUNNY     18  12  79 SW7       30.45S WCI   8
PHILLIPSBURG   CLEAR     19  16  86 W5        30.49S WCI  13
SMITH CENTER   CLEAR     21  18  86 E10       30.49F WCI  10
BELOIT         CLEAR     18  16  93 CALM      30.51F
HAYS           CLEAR     21  10  63 N5        30.49S WCI  15
RUSSELL        CLEAR     21  18  88 SW7       30.48S WCI  12
CONCORDIA      PTCLDY    19  17  92 E5        30.52F WCI  12
SALINA         PTCLDY    26  19  74 CALM      30.53S
TOPEKA         CLEAR     20  17  88 CALM      30.56S



USA.gov is the U.S. government's official web portal to all federal, state and local government web resources and services.